This demonstration page uses our WeatherBlox Daily Observations layout. Learn more.

Left ArrowRight Arrow

Hourly Observations for January 25, 2020

Temp ( °F °C ) Dew Point ( °F °C ) Humidity (%) Winds ( mph kmh ) Pressure ( in mb ) Visibility ( mi km ) Precip ( " mm )
12:15 am 00:15 Cloudy 45 7 45 7 100 100 ESE 10 17 29.99 1016 7 11.26538 0.01 0.254
12:35 am 00:35 Cloudy 45 7 45 7 100 100 E 10 17 29.97 1015 7 11.26538 0.03 0.762
12:55 am 00:55 Cloudy 45 7 45 7 100 100 ESE 9 15 29.97 1015 5 8.0467 0.08 2.032
1:15 am 01:15 Cloudy 45 7 45 7 100 100 SE 8 13 29.97 1015 4 6.43736 0.06 1.524
1:35 am 01:35 Cloudy 45 7 45 7 100 100 ESE 8 13 29.94 1014 4 6.43736 0.14 3.556
1:55 am 01:55 Cloudy 45 7 45 7 100 100 ESE 13 20 29.95 1014 5 8.0467 0.21 5.334
2:15 am 02:15 Cloudy 45 7 45 7 100 100 ESE 13 20 29.94 1014 3 4.82802 0.09 2.286
2:35 am 02:35 Cloudy 45 7 45 7 100 100 ESE 13 20 29.94 1014 4 6.43736 0.19 4.826
2:55 am 02:55 Cloudy 45 7 45 7 100 100 ESE 13 20 29.93 1014 4 6.43736 0.32 8.128
3:15 am 03:15 Cloudy 45 7 45 7 100 100 WNW 3 6 29.94 1014 1.75 2.816345 0.13 3.302
3:35 am 03:35 Cloudy 45 7 45 7 100 100 NW 13 20 29.94 1014 1.25 2.011675 0.44 11.176
3:55 am 03:55 Cloudy 43 6 43 6 100 100 NNW 15 24 29.95 1014 1.5 2.41401 0.63 16.002
4:15 am 04:15 Cloudy 43 6 43 6 100 100 NNE 13 20 29.92 1013 3 4.82802 0.05 1.27
4:35 am 04:35 Cloudy 43 6 43 6 100 100 N 7 11 29.93 1014 7 11.26538 0.08 2.032
4:55 am 04:55 Cloudy 43 6 43 6 100 100 NNE 6 9 29.95 1014 2 3.21868 0.16 4.064
5:15 am 05:15 Cloudy 43 6 43 6 100 100 NE 12 19 29.91 1013 2.5 4.02335 0.08 2.032
5:35 am 05:35 Cloudy 41 5 41 5 100 100 NE 7 11 29.91 1013 10 16.0934 0.09 2.286
5:55 am 05:55 Cloudy 41 5 41 5 100 100 NE 8 13 29.88 1012 7 11.26538 0.12 3.048
6:15 am 06:15 Cloudy 41 5 41 5 100 100 NE 15 24 29.82 1010 10 16.0934 0 0
6:35 am 06:35 Cloudy 41 5 41 5 100 100 ENE 7 11 29.86 1011 7 11.26538 0.01 0.254
6:55 am 06:55 Cloudy 43 6 43 6 100 100 NNE 3 6 29.86 1011 10 16.0934 0.03 0.762
7:15 am 07:15 Cloudy 41 5 41 5 100 100 WNW 6 9 29.86 1011 10 16.0934 0 0
7:35 am 07:35 Cloudy 41 5 41 5 100 100 W 3 6 29.89 1012 10 16.0934 0 0
7:55 am 07:55 Cloudy 41 5 41 5 100 100 N 8 13 29.85 1011 10 16.0934 0.01 0.254
8:15 am 08:15 Cloudy 41 5 41 5 100 100 NW 3 6 29.89 1012 10 16.0934 0 0
8:35 am 08:35 Cloudy 41 5 41 5 100 100 N 8 13 29.88 1012 10 16.0934 0 0
8:55 am 08:55 Cloudy 41 5 41 5 100 100 NNW 5 7 29.88 1012 10 16.0934 0 0
9:15 am 09:15 Cloudy 41 5 41 5 100 100 NE 3 6 29.9 1013 5 8.0467 0 0
9:35 am 09:35 Cloudy 41 5 41 5 100 100 NNW 6 9 29.89 1012 10 16.0934 0 0
9:55 am 09:55 Cloudy 41 5 41 5 100 100 NW 6 9 29.89 1012 2.5 4.02335 0.01 0.254
10:15 am 10:15 Cloudy 41 5 41 5 100 100 WNW 5 7 29.89 1012 4 6.43736 0.01 0.254
10:35 am 10:35 Cloudy 41 5 41 5 100 100 WNW 5 7 29.89 1012 5 8.0467 0.01 0.254
10:55 am 10:55 Cloudy 41 5 41 5 100 100 NW 7 11 29.89 1012 5 8.0467 0.01 0.254
11:15 am 11:15 Cloudy 43 6 43 6 100 100 NNW 5 7 29.89 1012 10 16.0934 0 0
11:35 am 11:35 Cloudy 43 6 43 6 100 100 NNW 8 13 29.89 1012 10 16.0934 0 0
11:55 am 11:55 Cloudy 43 6 43 6 100 100 NW 8 13 29.88 1012 10 16.0934 0 0
12:15 pm 12:15 Cloudy 43 6 43 6 100 100 NW 13 20 29.87 1012 10 16.0934 0 0
12:35 pm 12:35 Cloudy 45 7 43 6 93 93 NW 8 13 29.87 1012 10 16.0934 0 0
12:55 pm 12:55 Cloudy 45 7 43 6 93 93 NNW 12 19 29.87 1012 10 16.0934 0 0
1:15 pm 13:15 Cloudy 45 7 43 6 93 93 NW 10 17 29.86 1011 10 16.0934 0 0
1:35 pm 13:35 Cloudy 46 8 43 6 87 87 WNW 10 17 29.86 1011 10 16.0934 0 0
1:55 pm 13:55 Cloudy 46 8 43 6 87 87 NNW 12 19 29.86 1011 10 16.0934 0 0
2:15 pm 14:15 Cloudy 46 8 41 5 82 82 NW 13 20 29.86 1011 10 16.0934 0 0
2:35 pm 14:35 Cloudy 46 8 41 5 82 82 NW 13 20 29.86 1011 10 16.0934 0 0
2:55 pm 14:55 Cloudy 46 8 41 5 82 82 NNW 13 20 29.86 1011 10 16.0934 0 0
3:15 pm 15:15 Cloudy 46 8 39 4 76 76 NNW 10 17 29.87 1011 10 16.0934 0 0
3:35 pm 15:35 Cloudy 46 8 39 4 76 76 NNW 8 13 29.87 1011 10 16.0934 0 0
3:55 pm 15:55 Cloudy 46 8 37 3 71 71 NNW 7 11 29.87 1011 10 16.0934 0 0
4:15 pm 16:15 Cloudy 46 8 37 3 71 71 NNW 7 11 29.87 1011 10 16.0934 0 0
4:35 pm 16:35 Cloudy 46 8 37 3 71 71 NNW 9 15 29.87 1011 10 16.0934 0 0
4:55 pm 16:55 Cloudy 46 8 37 3 71 71 NNW 7 11 29.88 1012 10 16.0934 0 0
5:15 pm 17:15 Mostly Cloudy 45 7 37 3 76 76 N 5 7 29.88 1012 10 16.0934 0 0
5:35 pm 17:35 Partly Cloudy 43 6 37 3 81 81 Calm 29.88 1012 10 16.0934 0 0
5:55 pm 17:55 Partly Cloudy 43 6 37 3 81 81 Calm 29.88 1012 10 16.0934 0 0
6:15 pm 18:15 Clear 41 5 37 3 87 87 Calm 29.89 1012 10 16.0934 0 0
6:35 pm 18:35 Clear 37 3 37 3 100 100 Calm 29.9 1012 10 16.0934 0 0
6:55 pm 18:55 Mostly Cloudy 37 3 37 3 100 100 Calm 29.91 1013 10 16.0934 0 0
7:15 pm 19:15 Cloudy 37 3 36 2 93 93 WNW 7 11 29.91 1013 10 16.0934 0 0
7:35 pm 19:35 Partly Cloudy 37 3 34 1 87 87 NW 6 9 29.92 1013 10 16.0934 0 0
7:55 pm 19:55 Clear 39 4 34 1 81 81 NW 6 9 29.93 1013 10 16.0934 0 0
8:15 pm 20:15 Clear 41 5 34 1 76 76 NNW 8 13 29.92 1013 10 16.0934 0 0
8:35 pm 20:35 Clear 37 3 34 1 87 87 NW 9 15 29.93 1013 10 16.0934 0 0
8:55 pm 20:55 Clear 41 5 32 0 70 70 NW 10 17 29.92 1013 10 16.0934 0 0
9:15 pm 21:15 Clear 41 5 32 0 70 70 WNW 9 15 29.92 1013 10 16.0934 0 0
9:35 pm 21:35 Clear 39 4 32 0 75 75 W 5 7 29.93 1013 10 16.0934 0 0
9:55 pm 21:55 Clear 39 4 32 0 75 75 W 3 6 29.93 1013 10 16.0934 0 0
10:15 pm 22:15 Clear 37 3 32 0 81 81 W 5 7 29.94 1014 10 16.0934 0 0
10:35 pm 22:35 Clear 36 2 32 0 87 87 WNW 9 15 29.94 1014 10 16.0934 0 0
10:55 pm 22:55 Clear 39 4 32 0 75 75 WNW 10 17 29.94 1014 10 16.0934 0 0
11:15 pm 23:15 Clear 39 4 32 0 75 75 WNW 12 19 29.94 1014 10 16.0934 0 0
11:35 pm 23:35 Clear 39 4 32 0 75 75 WNW 7 11 29.94 1014 10 16.0934 0 0
11:55 pm 23:55 Partly Cloudy 37 3 32 0 81 81 WNW 7 11 29.94 1014 10 16.0934 0 0

Powered by AerisWeather